Location: Newark
(15.7058°N, 0.4100°E)
Time: 15:28:18
(UTC+00:00)

N. Korean satellite - Visible Passes

Search period start: 11 December 2019 00:00
Search period end: 21 December 2019 00:00
Orbit: 455 x 506 km, 97.2° (Epoch: 10 December)

Date Brightness Start Highest point End Pass type
(mag) Time Alt. Az. Time Alt. Az. Time Alt. Az.
11 Dec 9.9 04:46:45 10° ENE 04:48:08 12° E 04:49:31 10° ESE visible
11 Dec 10.2 18:15:14 10° WSW 18:16:46 12° W 18:18:18 10° WNW visible
12 Dec 9.0 17:48:04 10° SSW 17:51:19 29° W 17:54:35 10° NW visible
13 Dec 7.0 05:27:14 10° NNE 05:30:38 63° E 05:34:00 10° S visible
14 Dec 9.1 05:02:27 10° NE 05:05:12 22° E 05:07:55 10° SSE visible
15 Dec 9.9 18:06:03 10° SW 18:08:24 16° W 18:10:45 10° WNW visible
16 Dec 6.4 05:44:15 10° N 05:47:38 61° WNW 05:50:59 10° SSW visible
17 Dec 7.7 05:18:57 10° NNE 05:22:13 43° E 05:25:29 10° S visible
18 Dec 9.6 04:54:32 10° ENE 04:56:47 17° E 04:59:02 10° SE visible
19 Dec 9.7 17:57:10 10° SSW 18:00:01 21° W 18:02:52 10° NW visible
20 Dec 6.4 05:35:48 10° N 05:39:13 87° W 05:42:37 10° SSW visible
